Location: Marcé
(47.5801°N, 0.3280°W)
Time: 19:47:17
(UTC+01:00)

Tiros 1 despin weight - Pass Details

Date: 02 December 2021
Orbit: 592 x 641 km, 48.2° (Epoch: 21 January)

Event Time Altitude Azimuth Distance (km) Brightness Sun altitude
Rises 20:53:26 0° 283° (WNW) 2,829 ? -36.6°
Reaches altitude 10° 20:56:09 10° 267° (W) 1,929 ? -37.0°
Enters shadow 20:56:53 13° 260° (W) 1,731 ? -37.1°
